Starlink 31351

operational
NORAD ID: 58972 Int'l Des: 2024-031 Owner: SPXS Country: US Constellation: starlink
LEOCIRCULAR

About Starlink 31351

Description loading...

Live Position

Loading 3D Globe...

Upcoming Passes

Altitude History

Altitude vs Time

uPlot chart will show altitude changes over time

Two-Line Element Set

1 58972U 24031H 25351.32422291 -.00001806 00000-0 -48886-4 0 9997
2 58972 53.1618 319.2043 0001143 76.6524 283.4605 15.30177847103913
Epoch: Dec 17, 2025 • Age: 8 hours

Current Status

Altitude 481.0 km
Velocity 7.63 km/s
Sub-Earth Point 53.15°N, 74.98°E
Launch Date Feb 15, 2024
Age 1.8 years
Type internet

Technical Details

Classification Payload
Mass 730.00 kg
Dry Mass 700.00 kg
Total Mass 730.00 kg
Length 0.30 m
Diameter 4.10 m
Span 29.00 m
Shape Box + pan
Manufacturer SPXS
Bus Type Starlink V2M
Phase Status In Orbit
Owner/State SPXS/US

Large Constellations

Loading constellations...